Other Public Products
Issued by NWS Grand Forks, ND

Home | Current Version | Previous Version | Text Only | Print | Product List | Glossary Off
Versions: 1 2 3 4 5 6 7 8 9 10 11 12 13 14 15 16 17 18 19 20 21 22 23 24 25 26 27 28 29 30 31 32 33 34 35 36 37 38 39 40 41 42 43 44 45 46 47 48 49 50

000
FPUS83 KFGF 301510
OPUFGF
PRAIRIE TO PINES WEATHER ROUNDUP
NATIONAL WEATHER SERVICE EASTERN NORTH DAKOTA/GRAND FORKS ND
1000 AM CDT SAT JUL 30 2016

 **SATELLITE DATA USED TO AUGMENT SKY COVER AT AUTOMATED STATIONS**
 *****  WEATHER ACROSS EASTERN NORTH DAKOTA  *****

CITY           SKY/WX    TMP DP  RH WIND       PRES   REMARKS
GRAND FORKS    PTSUNNY   71  62  73 SE12      29.95S
GRAND FORKS AF PTSUNNY   73  63  69 S12       29.94F
GRAND CITY NWS NOT AVBL
BUXTON           N/A     74  67  77 S6G17       N/A
DEVILS LAKE    SUNNY     72  62  71 W6        29.93F
FARGO          PTSUNNY   74  61  63 S8        29.98S
WAHPETON ARPT  SUNNY     72  59  64 S9        30.01R
$$

 *****  WEATHER ACROSS CENTRAL AND WESTERN NORTH DAKOTA  *****

CITY           SKY/WX    TMP DP  RH WIND       PRES   REMARKS
JAMESTOWN      CLOUDY    69  61  75 S5        29.96
BISMARCK       CLOUDY    67  61  81 SE12      29.91F
MINOT          SUNNY     77  60  55 SE7       29.89S
MINOT AFB      SUNNY     73  63  69 SW6       29.88S
GARRISON         N/A     70  63  78 S9        29.90F
WILLISTON      SUNNY     71  60  68 SE6       29.89F
DICKINSON      SUNNY     70  61  73 VRB3      29.90F
HETTINGER      SUNNY     74  59  59 S3        29.93S
$$

 *****  OTHER OBSERVATIONS NORTHEAST NORTH DAKOTA  *****

CITY           SKY/WX    TMP DP  RH WIND       PRES   REMARKS
WALHALLA       NOT AVBL
LANGDON        FAIR      73  64  73 SE7       29.93F
CAVALIER       FAIR      72  64  78 S14       29.92F
GRAFTON        FAIR      72  64  78 SE13G20   29.95S
CANDO          NOT AVBL
FORT TOTTEN      N/A     73  63  69 S6        29.95S
ROLLA          FAIR      68  66  94 SW7       29.93S
RUGBY          NOT AVBL
 ***** THE ABOVE OBSERVATIONS ARE NON NWS ARE NOT QUALITY
        CONTROLLED AND MAY MIS-REPORT RAIN FOR SNOW...
$$

 *****  OTHER OBSERVATIONS SOUTHEAST NORTH DAKOTA *****

CITY           SKY/WX    TMP DP  RH WIND       PRES   REMARKS
COOPERSTOWN    NOT AVBL
VALLEY CITY    PTSUNNY   68  64  88 S12       29.99S
OAKES            N/A    N/A N/A N/A MISG        N/A
GWINNER        FAIR      70  61  73 SW10      29.99F
SHEYENNE NWR     N/A     72  60  67 SW7       29.95S
BUFFALO          N/A     70  57  63 SW9         N/A
WYNDMERE       NOT AVBL
 ***** THE ABOVE OBSERVATIONS ARE NON NWS ARE NOT QUALITY
       CONTROLLED AND MAY MIS-REPORT RAIN FOR SNOW...
$$

  *****  WEATHER ACROSS NORTHERN MINNESOTA  *****

CITY           SKY/WX    TMP DP  RH WIND       PRES   REMARKS
FLAG ISLAND    SUNNY     73  63  68 S8        29.98S
WARROAD        NOT AVBL
ROSEAU         MOSUNNY   72  64  78 S8        29.98F
HALLOCK        PTSUNNY   70  64  83 S9        29.93F
THF RVR FALLS  LGT RAIN  66  63  90 CALM      30.01S
HALSTAD          N/A     75  61  61 S8          N/A
FOSSTON        CLOUDY    66  63  88 SE6       30.02S
BAUDETTE       SUNNY     73  64  73 S9        30.00S
WASKISH        MOSUNNY   73  61  64 S6        30.02F
CROOKSTON      MOSUNNY   70  64  83 SE8       29.99S
$$
  *****  WEATHER ACROSS CENTRAL AND WEST MINNESOTA  *****

CITY           SKY/WX    TMP DP  RH WIND       PRES   REMARKS
BEMIDJI        PTSUNNY   71  61  70 SW6       30.04S
PARK RAPIDS    CLOUDY    70  59  68 S5        30.05R
WADENA         MOSUNNY   72  59  64 S7        30.04S
DETROIT LAKES  CLOUDY    68  61  77 S6        30.04R
MOORHEAD       MOSUNNY   73  63  68 S7        30.00R
FERGUS FALLS   PTSUNNY   73  61  64 S10       30.03S
ELBOW LAKE     CLOUDY    71  61  71 SE8       30.03S
MORRIS MN      SUNNY     73  57  56 S9        30.02S
STAPLES        SUNNY     70  57  64 SW6       30.05S
WHEATON        NOT AVBL
$$
  *****  WEATHER ELSEWHERE ACROSS MINNESOTA  *****

CITY           SKY/WX    TMP DP  RH WIND       PRES   REMARKS
DULUTH         SUNNY     67  59  75 E7        30.07F
INTRNTL FALLS  SUNNY     71  57  61 CALM      30.04S
ELY            MOSUNNY   70  54  56 CALM      30.08S
CLOQUET        SUNNY     66  57  72 E3        30.07S
BRAINERD       SUNNY     70  57  63 CALM      30.05F
HIBBING        SUNNY     65  55  70 SE5       30.07F
ALEXANDRIA     SUNNY     71  54  54 S9        30.05F
SAINT CLOUD    SUNNY     71  62  73 NE3       30.04S
MINNEAPOLIS    CLOUDY    71  63  75 SE6       30.04R
$$

  *****  WEATHER ACROSS SOUTH DAKOTA  *****

CITY           SKY/WX    TMP DP  RH WIND       PRES   REMARKS
SIOUX FALLS    MOSUNNY   72  62  71 S8        30.03F
BROOKINGS      SUNNY     71  61  70 S6        30.03F
WATERTOWN      SUNNY     70  59  68 S10       30.03S
HURON          SUNNY     73  61  65 S10       29.99S
SISSETON         N/A     75  60  59 S8        29.99S
ABERDEEN       SUNNY     73  62  68 S15       29.98F
MITCHELL       SUNNY     74  62  66 S9        30.00S
PIERRE         SUNNY     76  63  64 S14       29.93
MOBRIDGE       SUNNY     77  60  55 S18       29.91F
RAPID CITY     SUNNY     71  58  63 SE5       29.95R
$$

  *****  SOME WEATHER IN NEARBY STATES *****

CITY           SKY/WX    TMP DP  RH WIND       PRES   REMARKS
GLASGOW MT     SUNNY     72  56  57 SE10      29.84F
GREAT FALLS MT MOSUNNY   73  49  42 SW8       29.83F
CHEYENNE WY    CLOUDY    63  59  87 S6        30.13S
SCOTTSBLUFF NE SUNNY     70  62  76 E6        30.01S
OMAHA NE       PTSUNNY   71  63  75 CALM      30.04F
DES MOINES IA  CLOUDY    72  66  81 NW5       30.02S
DAVENPORT IA   PTSUNNY   72  67  84 NE8       29.99F
CHICAGO IL     CLOUDY    72  65  78 NE7       29.98R
EAU CLAIRE WI  SUNNY     72  56  57 E7        30.04F
LA CROSSE WI   PTSUNNY   74  62  66 E6        30.02F
$$

  *****  SOME NATIONAL WEATHER *****

CITY           SKY/WX    TMP DP  RH WIND       PRES   REMARKS
LA GUARDIA NY  PTSUNNY   78  69  73 NE9       30.01R
RALEIGH NC     CLOUDY    87  73  62 SW8       29.99S HX  94
ATLANTA GA     PTSUNNY   86  74  67 N3        30.08R HX  94
NEW ORLEANS LA MOSUNNY   89  77  67 NW7       30.05S HX 101
OKLAHOMA CITY  CLOUDY    79  71  76 N7        30.01R
ALBUQUERQUE NM CLOUDY    72  55  55 N6        30.20R
SALT LAKE CITY MOSUNNY   81  45  28 E8        29.96S
LOS ANGELES CA MOSUNNY   74  65  73 SE7       29.87R
BOISE ID       SUNNY     80  39  23 CALM      29.84R HAZE
SEATTLE WA     CLOUDY    58  54  86 SW8       29.98R
$$

*** WEATHER ACROSS MANITOBA...SASKATCHEWAN AND ONTARIO ***
                ***ONTARIO***

CITY           SKY/WX    TMP DP  RH WIND       PRES   REMARKS
GERALDTON      MOSUNNY   73  52  46 S6        30.09F
THUNDER BAY    PTSUNNY   70  55  60 NE5       30.08F
SIOUX LOOKOUT  PTSUNNY   72  59  64 S3        30.03S
TORONTO        PTSUNNY   70  57  64 NE8       30.06S
BIG TROUT LK   MOSUNNY   68  63  83 S5        29.93F
PICKLE LAKE    MOSUNNY   75  52  43 S10       30.01F
DRYDEN         MOSUNNY   73  59  60 S12       30.02F
KENORA         MOSUNNY   72  63  73 SW7       30.00S
$$
                *** MANITOBA***

CITY           SKY/WX    TMP DP  RH WIND       PRES   REMARKS
BRANDON        SUNNY     72  63  73 W3        29.89F
DAUPHIN        PTSUNNY   73  63  68 W5        29.85S
ISLAND LAKE    MOSUNNY   73  63  68 S7        29.87F
PILOT MOUND      N/A     70  64  83 S8          N/A
THE PAS        MOSUNNY   73  61  64 W5        29.78F
THOMPSON       LGT RAIN  64  63  94 SW3       29.79F
WINNIPEG       MOSUNNY   72  63  73 S9        29.92F
LYNN LAKE      CLOUDY    64  59  82 MISG      29.81S
CHURCHILL      CLOUDY    54  46  76 SE14      29.95F
GILLAM         CLOUDY    55  54  94 E6        29.85F
$$
                ***SASKATCHEWAN***

CITY           SKY/WX    TMP DP  RH WIND       PRES   REMARKS
ESTEVAN        SUNNY     72  63  73 CALM      29.89F
KINDERSLEY     PTSUNNY   72  61  68 SE12      29.75F
LLOYDMINSTER   LGT RAIN  63  59  88 CALM      29.78S
PRINCE ALBERT  NOT AVBL
REGINA         MOSUNNY   70  59  68 S3        29.86F
YORKTON        SUNNY     70  61  73 VRB2      29.85F  C1F1C2F2C3F3C4F4C5F5C6F6C7F7C8F8C9F9CaFaCbFbCcFcCdFdCe!


USA.gov is the U.S. government's official web portal to all federal, state and local government web resources and services.